| time (UTC) | temp F | wind direction | speed MPH | gust MPH | rain 1hr in | rain 24hr in | rain mn in | humidity % | barometer mb |
| 20260506001516 | 57 | 62 | 10.0 | 23.0 | 0.00 | 0.00 | 0.00 | 47 | 1004.6 |
| 20260506000017 | 58 | 43 | 14.0 | 19.0 | 0.00 | 0.00 | 0.00 | 47 | 1004.4 |
| 20260505234515 | 58 | 80 | 13.0 | 21.0 | 0.00 | 0.00 | 0.00 | 46 | 1004.5 |
| 20260505233014 | 59 | 77 | 11.0 | 17.0 | 0.00 | 0.00 | 0.00 | 46 | 1004.4 |
| 20260505231513 | 60 | 52 | 11.0 | 17.0 | 0.00 | 0.00 | 0.00 | 45 | 1004.1 |
| 20260505230022 | 60 | 74 | 10.0 | 15.0 | 0.00 | 0.00 | 0.00 | 44 | 1004.3 |
| 20260505224512 | 60 | 42 | 9.0 | 15.0 | 0.00 | 0.00 | 0.00 | 44 | 1004.2 |
| 20260505223015 | 60 | 86 | 10.0 | 0.0 | 0.00 | 0.00 | 0.00 | 43 | 1004.2 |
| 20260505221512 | 60 | 81 | 9.0 | 17.0 | 0.00 | 0.00 | 0.00 | 43 | 1004.5 |
| 20260505220011 | 60 | 56 | 8.0 | 14.0 | 0.00 | 0.00 | 0.00 | 43 | 1004.4 |
| 20260505214510 | 60 | 87 | 11.0 | 14.0 | 0.00 | 0.00 | 0.00 | 43 | 1004.6 |
| 20260505213008 | 60 | 66 | 7.0 | 13.0 | 0.00 | 0.00 | 0.00 | 43 | 1005.1 |
| 20260505211510 | 61 | 360 | 10.0 | 17.0 | 0.00 | 0.00 | 0.00 | 42 | 1005.2 |
| 20260505210007 | 60 | 71 | 6.0 | 15.0 | 0.00 | 0.00 | 0.00 | 42 | 1005.3 |
| 20260505204507 | 60 | 76 | 6.0 | 13.0 | 0.00 | 0.00 | 0.00 | 44 | 1005.5 |
| 20260505203006 | 59 | 30 | 10.0 | 14.0 | 0.00 | 0.00 | 0.00 | 44 | 1005.5 |
| 20260505201506 | 60 | 37 | 7.0 | 12.0 | 0.00 | 0.00 | 0.00 | 44 | 1005.7 |
| 20260505200009 | 59 | 52 | 6.0 | 16.0 | 0.00 | 0.00 | 0.00 | 44 | 1005.7 |
| 20260505194505 | 58 | 34 | 7.0 | 17.0 | 0.00 | 0.00 | 0.00 | 45 | 1005.3 |
| 20260505193001 | 58 | 5 | 9.0 | 20.0 | 0.00 | 0.00 | 0.00 | 46 | 1005.3 |
| 20260505191601 | 58 | 87 | 11.0 | 18.0 | 0.00 | 0.00 | 0.00 | 46 | 1005.6 |
| 20260505190100 | 58 | 35 | 12.0 | 17.0 | 0.00 | 0.00 | 0.00 | 46 | 1005.5 |
| 20260505184600 | 57 | 21 | 9.0 | 19.0 | 0.00 | 0.00 | 0.00 | 47 | 1005.6 |
| 20260505183058 | 57 | 44 | 11.0 | 20.0 | 0.00 | 0.00 | 0.00 | 47 | 1005.7 |
| 20260505181559 | 56 | 43 | 11.0 | 20.0 | 0.00 | 0.00 | 0.00 | 48 | 1005.7 |
| 20260505180058 | 57 | 36 | 14.0 | 20.0 | 0.00 | 0.00 | 0.00 | 47 | 1005.9 |
| 20260505174602 | 56 | 344 | 10.0 | 20.0 | 0.00 | 0.00 | 0.00 | 48 | 1006.1 |
| 20260505173056 | 56 | 30 | 14.0 | 21.0 | 0.00 | 0.00 | 0.00 | 51 | 1005.3 |
| 20260505171554 | 55 | 32 | 14.0 | 22.0 | 0.00 | 0.00 | 0.00 | 50 | 1005.7 |
| 20260505170053 | 54 | 23 | 12.0 | 23.0 | 0.00 | 0.00 | 0.00 | 51 | 1005.6 |
| 20260505164614 | 54 | 10 | 16.0 | 21.0 | 0.00 | 0.00 | 0.00 | 50 | 1005.3 |
| 20260505163054 | 54 | 5 | 15.0 | 24.0 | 0.00 | 0.00 | 0.00 | 51 | 1005.3 |
| 20260505161550 | 53 | 24 | 15.0 | 22.0 | 0.00 | 0.00 | 0.00 | 53 | 1005.3 |
| 20260505153045 | 53 | 17 | 13.0 | 22.0 | 0.00 | 0.00 | 0.00 | 53 | 1005.0 |
| 20260505151546 | 52 | 348 | 12.0 | 18.0 | 0.00 | 0.00 | 0.00 | 53 | 1004.9 |
| 20260505124524 | 50 | 347 | 14.0 | 23.0 | 0.00 | 0.00 | 0.00 | 55 | 1002.3 |
| 20260505123019 | 50 | 347 | 14.0 | 21.0 | 0.00 | 0.00 | 0.00 | 55 | 1002.1 |
| 20260505121515 | 51 | 360 | 14.0 | 23.0 | 0.00 | 0.00 | 0.00 | 54 | 1001.8 |
| 20260505120014 | 52 | 348 | 9.0 | 17.0 | 0.00 | 0.00 | 0.00 | 55 | 1001.4 |
| 20260505114510 | 53 | 333 | 17.0 | 23.0 | 0.00 | 0.00 | 0.00 | 55 | 1001.2 |
| 20260505113007 | 53 | 342 | 8.0 | 19.0 | 0.00 | 0.00 | 0.00 | 55 | 1001.3 |
| 20260505111511 | 53 | 355 | 14.0 | 21.0 | 0.00 | 0.00 | 0.00 | 55 | 1001.1 |
| 20260505101550 | 57 | 334 | 19.0 | 26.0 | 0.00 | 0.00 | 0.00 | 56 | 1000.4 |
| 20260505100048 | 58 | 300 | 19.0 | 29.0 | 0.00 | 0.00 | 0.00 | 52 | 1000.4 |
| 20260505094542 | 61 | 315 | 17.0 | 28.0 | 0.00 | 0.00 | 0.00 | 43 | 999.9 |
| 20260505093037 | 64 | 324 | 14.0 | 26.0 | 0.00 | 0.00 | 0.00 | 30 | 999.3 |
| 20260505091532 | 67 | 296 | 16.0 | 28.0 | 0.00 | 0.00 | 0.00 | 25 | 998.7 |
| 20260505090031 | 67 | 299 | 11.0 | 17.0 | 0.00 | 0.00 | 0.00 | 26 | 998.4 |
| 20260505084527 | 67 | 269 | 13.0 | 18.0 | 0.00 | 0.00 | 0.00 | 26 | 998.0 |
| 20260505083022 | 68 | 360 | 11.0 | 16.0 | 0.00 | 0.00 | 0.00 | 25 | 997.5 |
| 20260505081529 | 69 | 249 | 14.0 | 20.0 | 0.00 | 0.00 | 0.00 | 25 | 997.4 |
| 20260505080020 | 69 | 243 | 13.0 | 20.0 | 0.00 | 0.00 | 0.00 | 25 | 997.6 |
| 20260505074516 | 70 | 246 | 14.0 | 21.0 | 0.00 | 0.00 | 0.00 | 25 | 997.9 |
| 20260505073015 | 69 | 257 | 15.0 | 24.0 | 0.00 | 0.00 | 0.00 | 25 | 997.8 |
| 20260505071531 | 70 | 238 | 16.0 | 22.0 | 0.00 | 0.00 | 0.00 | 24 | 997.9 |
| 20260505070014 | 70 | 250 | 16.0 | 25.0 | 0.00 | 0.00 | 0.00 | 24 | 997.8 |
| 20260505064520 | 69 | 247 | 16.0 | 24.0 | 0.00 | 0.00 | 0.00 | 24 | 997.7 |
| 20260505063013 | 70 | 215 | 16.0 | 22.0 | 0.00 | 0.00 | 0.00 | 24 | 997.8 |
| 20260505061510 | 70 | 219 | 16.0 | 23.0 | 0.00 | 0.00 | 0.00 | 24 | 998.0 |
| 20260505060004 | 70 | 219 | 17.0 | 24.0 | 0.00 | 0.00 | 0.00 | 23 | 997.9 |
| 20260505054502 | 71 | 219 | 16.0 | 24.0 | 0.00 | 0.00 | 0.00 | 23 | 997.9 |
| 20260505053106 | 71 | 242 | 18.0 | 25.0 | 0.00 | 0.00 | 0.00 | 23 | 998.1 |
| 20260505051558 | 71 | 242 | 18.0 | 25.0 | 0.00 | 0.00 | 0.00 | 23 | 998.1 |
| 20260505041554 | 72 | 234 | 21.0 | 29.0 | 0.00 | 0.00 | 0.00 | 23 | 998.1 |
| 20260505040052 | 73 | 234 | 21.0 | 30.0 | 0.00 | 0.00 | 0.00 | 22 | 998.2 |
| 20260505034552 | 72 | 236 | 17.0 | 24.0 | 0.00 | 0.00 | 0.00 | 22 | 998.3 |
| 20260505033052 | 74 | 360 | 20.0 | 27.0 | 0.00 | 0.00 | 0.00 | 20 | 998.2 |
| 20260505031550 | 73 | 238 | 18.0 | 26.0 | 0.00 | 0.00 | 0.00 | 19 | 998.2 |
| 20260505030050 | 74 | 237 | 19.0 | 26.0 | 0.00 | 0.00 | 0.00 | 18 | 997.9 |
| 20260505024549 | 75 | 235 | 17.0 | 23.0 | 0.00 | 0.00 | 0.00 | 17 | 997.9 |
| 20260505023055 | 75 | 239 | 15.0 | 22.0 | 0.00 | 0.00 | 0.00 | 16 | 997.8 |
| 20260505021548 | 76 | 213 | 16.0 | 22.0 | 0.00 | 0.00 | 0.00 | 16 | 997.7 |
| 20260505020047 | 77 | 360 | 16.0 | 24.0 | 0.00 | 0.00 | 0.00 | 15 | 997.6 |
| 20260505014547 | 77 | 236 | 16.0 | 22.0 | 0.00 | 0.00 | 0.00 | 15 | 997.6 |
| 20260505013046 | 78 | 229 | 15.0 | 23.0 | 0.00 | 0.00 | 0.00 | 14 | 997.4 |
| 20260505011551 | 79 | 222 | 18.0 | 26.0 | 0.00 | 0.00 | 0.00 | 14 | 997.4 |
| 20260505010048 | 80 | 241 | 19.0 | 25.0 | 0.00 | 0.00 | 0.00 | 14 | 997.3 |
| 20260505004544 | 81 | 220 | 19.0 | 30.0 | 0.00 | 0.00 | 0.00 | 13 | 997.4 |
| 20260505003043 | 82 | 270 | 12.0 | 19.0 | 0.00 | 0.00 | 0.00 | 15 | 997.5 |